MDT,Max TemperatureF,Mean TemperatureF,Min TemperatureF,Max Dew PointF,MeanDew PointF,Min DewpointF,Max Humidity, Mean Humidity, Min Humidity, Max Sea Level PressureIn, Mean Sea Level PressureIn, Min Sea Level PressureIn, Max VisibilityMiles, Mean VisibilityMiles, Min VisibilityMiles, Max Wind SpeedMPH, Mean Wind SpeedMPH, Max Gust SpeedMPH,PrecipitationIn, CloudCover, Events, WindDirDegrees
2013-8-1,85,77,69,63,55,51,78,55,32,30.23,30.01,29.92,10,10,5,22,9,29,0.06,5,Rain-Thunderstorm,119
2013-8-2,91,79,66,61,58,51,81,54,27,30.22,29.93,29.82,10,10,10,25,6,33,0.03,4,Rain-Thunderstorm,316
2013-8-3,91,78,64,60,54,48,84,54,24,30.02,29.94,29.86,10,10,10,12,4,22,0.00,3,,204
2013-8-4,92,80,67,61,54,45,66,44,21,30.25,29.97,29.82,10,10,4,26,10,32,0.09,5,Rain-Thunderstorm,107
2013-8-5,91,77,63,60,55,50,84,57,29,30.13,29.95,29.84,10,10,10,23,4,29,T,4,Thunderstorm,250
2013-8-6,88,79,69,53,51,45,53,38,23,30.11,29.89,29.82,10,10,10,24,6,28,0.00,4,,279
2013-8-7,83,73,63,56,53,50,67,50,33,30.08,29.90,29.84,10,10,10,26,7,31,0.00,4,Thunderstorm,279
2013-8-8,88,76,64,56,49,40,73,46,18,30.13,29.89,29.82,10,10,10,23,8,35,T,3,,324
2013-8-9,87,77,66,50,46,37,56,37,17,30.22,29.98,29.91,10,10,10,22,9,26,T,4,Thunderstorm,161
2013-8-10,84,74,63,55,50,43,63,47,31,30.34,30.12,29.99,10,10,10,28,10,33,0.04,6,Rain-Thunderstorm,315
2013-8-11,83,72,60,56,53,47,84,56,28,30.17,30.07,29.96,10,10,9,15,5,18,T,6,Rain,195
2013-8-12,83,74,64,57,54,49,73,54,34,30.25,30.02,29.95,10,10,10,21,7,26,T,5,Rain-Thunderstorm,160
2013-8-13,86,76,66,54,49,44,63,44,25,30.06,29.98,29.91,10,10,10,25,6,30,T,3,Rain,178
2013-8-14,90,78,65,56,51,43,68,45,21,30.22,29.98,29.89,10,10,10,31,8,43,T,3,Rain,142
2013-8-15,92,79,65,54,48,39,63,40,16,30.04,29.96,29.89,10,10,10,14,6,17,0.00,3,,178
2013-8-16,96,80,64,50,44,33,52,32,12,30.02,29.96,29.87,10,10,10,15,6,21,0.00,2,,171
2013-8-17,95,85,74,49,44,35,38,26,13,30.25,30.00,29.81,10,10,10,22,8,24,T,6,Rain-Thunderstorm,251
2013-8-18,93,81,69,53,48,40,49,33,16,29.99,29.93,29.83,10,10,10,18,6,28,0.04,5,,204
2013-8-19,94,81,68,58,50,43,66,42,18,30.21,29.94,29.80,10,10,10,28,7,32,T,4,Rain-Thunderstorm,204
2013-8-20,90,78,65,59,53,47,73,48,23,30.11,29.93,29.81,10,10,10,31,5,38,T,4,Rain-Thunderstorm,148
2013-8-21,89,78,66,56,51,46,63,45,26,30.17,29.94,29.84,10,10,10,32,6,39,0.01,4,Rain-Thunderstorm,178
2013-8-22,90,79,67,50,45,35,44,32,19,30.13,29.93,29.83,10,10,10,15,6,21,0.00,3,Thunderstorm,167
2013-8-23,88,78,67,49,44,33,38,31,23,30.14,29.92,29.84,10,10,10,30,8,35,T,3,Rain-Thunderstorm,171
2013-8-24,85,78,70,57,52,45,57,43,29,30.16,29.98,29.88,10,10,10,25,6,32,0.10,6,Rain-Thunderstorm,178
2013-8-25,85,77,68,62,57,53,78,58,37,30.28,30.08,29.99,10,10,10,29,6,36,0.05,6,Rain-Thunderstorm,15
2013-8-26,87,77,67,59,54,48,73,51,29,30.12,30.03,29.94,10,10,10,17,6,25,0.00,2,,99
2013-8-27,87,77,67,53,50,45,58,42,25,30.03,29.95,29.86,10,10,10,15,6,23,0.00,2,,151
2013-8-28,87,76,65,55,51,47,60,43,26,30.02,29.96,29.91,10,10,10,20,8,23,0.00,4,,168
2013-8-29,85,78,70,56,54,50,57,44,31,30.09,30.02,29.97,10,10,10,20,8,24,0.00,5,,176
2013-8-30,91,79,67,59,53,43,73,46,18,30.06,29.97,29.86,10,10,10,15,6,18,0.00,3,,175
2013-8-31,94,81,68,56,49,40,61,40,18,29.94,29.86,29.76,10,10,10,14,5,16,0.00,2,,163